Theta_e
257 256 255 257 257 258 259 259 260 259 261 260 257 257 259 257 255 254 261 260 259 262 263 262 261 262 261 262 262 262 262 262 262 261 261 261 261 261 261 261 261 260 260 260 260 260 260 261 260 261 262 262 263 263 264 265 266 267 268 270 271 272 273 274 275 277 278 279 280 281 281 282 282 283 284 285 286 287 288 288 288 287 287 287 287 287 288
254 255 256 256 257 258 257 255 259 259 260 260 260 258 259 259 257 260 260 260 260 262 261 260 260 261 261 262 263 262 261 260 261 260 260 260 260 260 260 260 260 260 260 260 260 260 260 260 260 260 261 261 262 262 262 263 265 266 268 269 270 271 272 273 274 275 277 278 279 280 282 283 283 283 283 284 285 286 285 285 285 286 286 286 286 287 287
251 253 256 257 257 255 253 257 258 259 258 260 261 260 260 258 259 261 261 259 259 261 260 260 260 260 261 261 260 260 260 259 259 258 258 259 258 259 259 259 259 260 259 259 259 259 259 259 259 260 260 261 261 261 262 263 263 265 267 268 269 270 270 272 272 273 275 277 278 279 281 283 283 284 284 284 284 284 284 284 284 284 285 285 285 286 286
249 252 255 257 256 256 255 254 257 257 258 255 258 258 260 259 257 259 259 256 257 260 259 260 259 258 258 258 259 258 258 258 258 256 257 257 257 258 258 258 259 258 258 258 258 258 259 259 259 259 260 260 260 260 261 261 262 265 267 267 268 268 269 270 271 272 273 275 277 279 281 282 283 283 284 284 283 283 283 282 282 283 283 284 284 285 285
253 253 252 255 255 252 250 251 255 258 259 260 261 261 262 261 261 258 254 256 258 255 258 255 257 255 256 257 258 257 257 257 257 256 256 256 256 257 257 257 257 257 258 258 258 258 258 258 258 259 260 259 259 260 260 261 262 264 265 266 267 267 268 268 269 270 271 272 275 278 280 281 282 283 283 283 282 282 281 282 282 282 282 282 283 284 284
254 252 252 253 252 247 248 258 261 261 258 260 258 259 261 258 255 258 257 256 254 255 255 254 253 255 254 257 258 258 256 255 256 256 256 255 256 256 256 257 257 257 258 258 258 258 258 259 259 259 259 259 260 260 260 260 261 263 264 265 265 266 266 267 268 269 270 271 272 276 279 280 281 282 282 282 282 281 281 281 281 281 281 281 282 282 283
252 249 250 249 246 247 256 258 259 259 258 259 259 256 251 254 255 256 255 255 254 255 255 254 255 255 256 257 257 257 256 255 254 254 255 255 255 255 255 256 256 257 257 257 257 257 258 258 258 258 258 259 259 259 259 260 261 262 263 263 265 265 265 265 266 267 268 269 270 273 277 279 280 281 281 281 281 280 280 280 280 280 280 280 281 281 282
250 248 250 242 243 248 256 258 256 259 259 259 257 255 253 252 253 254 252 254 253 254 254 254 255 255 255 257 257 256 256 255 254 254 253 255 255 254 255 256 256 256 256 256 256 256 258 257 257 257 257 259 258 257 259 259 260 261 261 262 263 264 263 264 265 266 267 268 269 271 274 278 279 280 280 280 279 280 279 279 279 279 279 280 280 281 282
247 246 247 249 249 253 254 255 256 256 256 256 255 250 255 250 253 254 253 254 253 253 253 254 253 254 255 254 255 256 254 255 254 254 253 254 254 255 255 256 256 257 256 256 256 256 256 256 256 256 257 258 257 257 257 258 259 259 260 261 261 262 262 263 264 265 266 268 268 270 272 275 278 279 279 279 279 280 278 279 278 278 278 278 279 280 280
250 248 243 242 245 244 247 253 257 258 257 257 256 255 254 250 251 254 253 251 252 252 253 253 253 253 252 254 253 254 253 254 253 254 254 255 255 255 255 256 256 255 256 256 256 255 255 255 255 256 257 257 257 256 257 258 258 258 259 259 260 260 261 262 263 264 266 268 268 269 270 272 275 278 279 279 279 279 278 277 276 277 277 278 279 279 279
251 250 246 244 241 244 252 256 256 257 257 257 257 249 247 252 251 253 253 251 252 251 251 251 252 252 252 253 251 252 252 254 254 253 253 254 254 254 254 254 254 254 255 255 254 254 254 254 255 256 256 257 256 255 256 257 257 257 257 258 258 259 260 261 263 264 267 268 268 268 269 271 274 276 278 278 279 279 278 277 276 276 277 277 277 278 278
248 246 247 245 246 246 251 255 256 257 257 258 256 244 245 250 250 252 252 251 251 251 251 251 249 250 250 254 252 253 252 254 253 253 253 252 253 253 254 254 254 255 254 253 253 253 253 253 255 255 256 256 255 255 255 256 255 255 257 257 258 259 260 261 263 264 267 268 268 268 269 271 273 275 277 278 278 277 277 276 275 276 276 276 276 276 277
251 252 245 244 246 252 253 255 255 257 258 254 244 245 250 252 252 253 253 252 252 252 250 251 247 251 251 252 252 253 253 252 252 253 253 252 253 252 252 253 256 253 253 252 252 252 253 254 254 255 255 255 254 254 255 255 254 256 257 257 257 258 259 261 262 265 267 267 267 268 269 270 272 274 276 277 277 276 275 275 274 274 274 275 275 275 275
245 243 245 248 244 248 253 254 255 255 253 243 246 252 247 250 252 254 254 252 252 251 250 250 250 251 252 253 253 252 252 252 252 252 252 252 252 253 253 254 254 253 252 252 252 252 253 254 254 254 255 254 253 253 254 253 254 257 256 256 257 257 258 260 263 265 266 266 267 268 269 270 272 274 275 276 276 275 275 274 273 273 274 274 273 273 274
242 243 243 242 244 246 250 253 254 253 250 252 251 249 249 252 253 253 254 253 253 252 250 250 250 251 251 251 251 251 252 252 251 251 251 250 251 251 251 251 252 253 251 251 251 252 253 254 254 254 254 253 253 253 252 253 255 256 255 256 256 256 257 260 263 264 265 266 267 268 268 270 271 273 274 274 275 275 274 273 273 272 272 273 272 272 272
245 242 242 243 246 250 249 252 247 250 251 250 248 251 251 252 252 253 253 253 253 252 250 250 250 250 250 250 251 251 251 251 251 251 251 251 251 251 251 252 252 252 251 251 251 252 253 253 253 254 254 253 253 253 252 255 255 255 255 255 255 256 257 260 263 264 265 266 267 267 268 269 270 271 272 273 274 274 274 273 272 272 272 272 272 271 270
249 244 242 250 249 249 251 251 251 250 251 251 251 252 251 251 252 252 252 251 252 252 251 250 250 249 250 249 250 250 250 250 250 250 250 250 250 250 250 250 251 251 250 250 251 251 252 253 253 253 253 252 252 252 253 255 254 254 254 254 254 255 257 261 262 263 264 265 266 267 267 267 268 270 270 272 272 272 273 272 272 271 271 271 271 270 270
249 250 250 249 248 249 249 251 251 250 249 250 250 251 250 252 252 251 250 251 251 251 251 249 248 249 249 249 249 249 249 249 250 250 250 249 250 249 250 249 250 251 251 251 251 251 252 252 252 252 253 252 251 252 254 254 254 254 254 253 254 255 257 261 262 263 263 265 266 267 268 268 268 269 269 270 270 271 271 271 271 270 270 270 270 269 269
250 248 248 249 250 250 250 249 250 250 251 251 250 249 250 250 250 250 251 249 249 249 248 247 248 248 249 248 248 248 248 248 249 249 249 249 249 249 248 249 250 250 250 250 250 251 251 252 252 252 253 253 253 253 253 254 253 253 253 253 254 255 258 260 261 262 263 264 265 267 267 268 268 269 269 269 269 269 269 269 269 269 269 268 268 268 268
250 249 248 248 250 251 251 251 250 250 250 249 250 251 250 249 248 248 249 247 247 248 247 248 248 248 248 247 247 247 248 248 248 248 249 249 249 249 249 249 249 249 250 250 250 251 251 252 252 253 253 253 253 253 254 253 253 253 252 253 254 255 257 260 261 262 262 263 264 266 268 268 268 268 269 269 268 267 268 268 268 268 268 268 268 267 267
249 249 249 249 250 249 250 251 251 252 251 250 248 248 248 247 247 247 245 246 246 246 247 248 247 246 247 247 247 247 247 247 248 248 248 249 249 248 248 248 249 249 250 250 250 251 251 252 252 253 253 253 253 253 253 253 253 252 252 253 254 254 257 259 260 261 262 262 263 263 267 268 269 269 268 268 268 268 269 269 268 267 266 266 267 267 267
246 251 251 248 246 247 249 249 250 250 250 250 250 248 247 246 245 245 245 246 246 246 246 246 246 245 246 247 247 246 247 247 247 248 248 248 248 248 248 249 249 249 250 250 250 251 251 252 252 253 253 253 253 254 253 253 252 251 252 252 253 254 257 258 260 260 261 261 262 262 264 266 267 266 269 271 271 269 269 271 271 272 270 267 267 267 267
249 251 248 250 249 249 250 250 250 250 250 249 247 247 246 246 246 245 245 246 246 246 247 245 246 245 246 246 247 246 246 247 247 248 248 248 248 248 248 248 248 249 250 250 250 250 251 252 252 253 253 253 253 253 253 253 252 252 252 252 253 254 257 257 259 260 260 260 261 261 262 263 265 264 264 265 268 271 272 271 271 272 273 273 272 271 268
250 249 248 249 248 248 249 250 250 249 247 247 247 247 247 246 245 245 244 245 246 246 246 246 246 247 247 247 247 246 246 247 247 247 248 248 248 248 248 248 248 249 249 250 250 250 251 252 252 253 252 253 253 253 252 252 252 252 252 252 253 254 256 257 258 259 259 260 260 260 261 262 263 263 263 262 263 265 265 267 270 272 273 272 272 271 271
251 250 250 250 249 249 249 248 248 247 247 246 244 244 245 245 245 245 244 245 246 245 246 246 246 247 246 247 246 246 246 247 248 248 249 249 249 249 248 249 248 249 249 250 250 251 251 252 252 252 252 253 253 252 252 252 252 251 252 253 254 255 256 257 258 258 258 259 259 260 259 260 260 261 262 262 260 260 262 264 265 265 267 269 271 272 272
250 249 248 248 247 246 246 246 246 245 244 246 246 245 247 248 247 246 245 245 245 245 245 245 246 246 247 246 246 246 246 247 248 249 248 248 248 248 248 248 249 249 250 250 251 251 252 252 252 252 252 252 253 252 252 252 252 252 252 253 255 255 256 256 257 257 258 258 258 259 259 259 259 259 260 260 260 260 260 260 261 261 262 263 264 264 267
249 249 248 246 245 245 247 246 244 246 245 245 244 244 245 244 246 246 245 244 244 245 245 246 247 247 247 247 247 248 247 248 249 248 248 247 248 248 249 249 249 249 250 250 250 251 252 252 252 252 252 252 252 252 252 252 252 252 253 254 255 256 257 257 256 257 257 258 258 258 258 258 258 258 259 259 259 258 258 257 257 256 256 258 260 261 260
247 245 245 244 242 243 244 245 245 245 245 244 244 244 244 243 243 242 243 245 246 245 246 247 247 246 247 247 247 247 248 247 247 248 248 247 248 249 249 249 249 250 250 250 251 252 252 251 251 251 252 252 252 252 252 252 251 252 253 253 254 255 256 256 256 256 256 257 257 257 257 257 258 258 258 258 257 257 257 257 256 256 256 256 257 259 259
244 243 243 244 244 243 244 243 243 243 244 244 244 242 242 243 242 244 243 244 245 245 246 248 248 248 247 247 247 247 247 247 247 247 247 248 249 249 249 249 250 250 250 250 251 251 251 251 251 251 251 252 252 252 252 251 251 252 252 253 253 254 255 256 255 255 256 256 256 257 257 257 257 257 257 257 257 257 256 255 255 255 255 255 255 256 257
244 242 244 243 243 244 244 245 244 245 243 244 242 242 242 242 243 243 243 244 244 245 247 248 247 247 247 246 247 247 246 246 247 247 247 248 248 249 249 250 250 249 249 250 250 250 250 250 251 251 251 251 252 252 252 251 251 252 252 253 253 254 255 255 255 255 255 255 255 256 255 256 256 256 255 255 256 255 255 255 255 254 254 254 255 254 254
243 243 243 243 242 242 243 243 243 243 243 242 241 242 242 242 242 242 244 245 245 245 247 247 246 246 246 246 246 247 247 247 247 247 247 247 248 249 250 249 248 247 247 248 249 249 250 251 251 251 251 251 252 252 252 251 251 251 252 253 253 255 255 255 255 254 254 254 254 254 254 254 254 255 255 254 254 254 254 254 254 253 253 253 254 254 254
243 241 239 241 241 241 242 241 242 242 242 241 241 242 242 243 243 243 244 243 244 245 245 245 245 245 246 246 245 245 245 245 246 246 246 247 248 249 249 249 248 248 248 248 249 249 250 251 250 251 251 251 252 252 251 251 251 251 251 252 252 253 254 255 254 254 254 253 253 253 253 253 253 254 253 253 253 253 253 253 252 252 252 252 252 253 254
240 240 241 239 240 240 241 242 241 241 242 242 242 243 241 243 243 244 244 244 244 244 244 245 245 245 245 245 245 244 244 244 245 245 246 247 247 248 248 248 248 248 247 248 249 249 250 250 250 251 251 252 252 252 251 251 251 250 251 251 252 253 254 254 254 253 253 252 252 252 252 252 252 252 252 252 252 253 252 252 252 252 252 251 251 252 255
244 245 243 240 241 244 244 244 241 241 242 242 243 243 244 244 240 242 242 241 241 242 243 244 244 244 245 244 244 243 243 243 243 244 245 245 245 246 247 248 247 247 247 248 249 250 251 250 250 250 251 251 251 251 251 251 251 251 251 251 252 252 252 253 253 253 252 252 252 252 252 252 252 251 251 251 252 252 252 252 251 251 251 250 250 251 254
247 246 245 244 244 243 243 244 244 244 242 244 244 242 244 241 241 242 243 243 242 243 244 244 243 243 242 242 241 241 242 242 242 243 244 244 245 245 246 246 246 246 246 248 250 250 250 250 250 251 251 251 251 251 251 251 251 250 251 251 251 252 252 252 252 252 251 251 251 251 251 251 251 252 251 251 250 250 250 251 250 250 250 250 250 250 251
244 245 245 244 244 241 241 241 244 242 243 242 242 242 241 241 240 240 241 242 243 243 243 244 243 241 241 241 241 241 241 241 242 242 243 244 244 245 245 244 244 244 245 247 250 249 250 250 251 251 250 250 250 250 251 251 251 250 250 250 250 251 251 252 251 251 251 251 251 251 250 251 251 251 250 249 249 249 249 249 249 249 248 248 249 249 248
245 245 245 245 245 242 241 241 241 241 241 241 241 241 242 241 241 242 241 242 242 242 241 242 241 240 240 241 241 242 242 242 242 242 242 243 243 243 243 243 243 244 246 246 249 249 249 249 250 250 249 249 249 250 250 251 251 250 249 249 249 249 250 250 250 250 250 250 250 250 250 249 249 249 249 248 248 248 248 247 248 248 248 248 248 248 248
244 244 243 244 242 240 240 241 240 239 239 238 239 241 241 241 241 240 240 242 242 241 241 240 241 241 242 242 241 241 241 241 241 241 241 240 240 240 240 241 242 244 245 246 247 247 249 249 250 249 248 249 249 249 250 251 250 249 248 248 248 248 249 249 249 249 249 248 249 248 248 248 248 248 247 246 246 247 247 247 248 247 247 247 246 247 247
244 244 244 244 241 240 239 240 238 236 238 240 241 241 241 241 241 239 240 241 242 242 242 242 242 241 240 240 240 241 241 240 240 239 239 239 239 238 240 241 242 243 244 245 244 246 247 249 249 247 248 248 248 249 249 250 250 248 247 247 247 248 248 248 248 247 248 248 247 247 246 247 247 247 246 246 246 247 247 248 247 248 246 245 245 245 245
245 244 243 239 240 241 239 240 239 239 239 238 239 240 241 240 239 241 241 241 240 241 240 238 238 240 240 240 240 240 241 240 239 239 239 239 238 238 240 242 241 241 242 245 243 242 246 249 245 244 246 246 247 248 248 249 249 247 246 245 246 246 246 247 246 246 246 245 245 247 245 245 245 246 246 246 245 246 245 245 245 246 245 245 243 243 245
242 243 242 238 240 238 238 238 240 240 238 238 238 239 239 239 239 238 239 240 240 238 239 238 239 240 240 240 240 240 241 241 241 239 238 237 238 239 239 242 242 238 239 242 241 242 246 246 244 243 244 244 243 246 246 248 247 245 245 244 244 244 245 245 245 245 244 244 245 244 243 243 244 243 244 244 245 244 244 245 245 245 244 244 244 244 244
241 238 237 237 238 238 238 239 237 238 239 239 239 239 239 238 239 239 240 240 240 239 239 239 241 241 240 240 240 241 240 240 240 239 238 239 240 240 241 242 241 239 245 246 246 245 242 240 242 245 243 243 244 247 248 247 243 241 242 242 243 244 244 244 244 243 244 243 242 241 242 243 242 242 244 244 243 244 244 244 244 244 243 244 244 244 243
238 237 238 239 239 237 236 237 237 238 238 239 239 238 238 238 238 238 239 239 239 239 239 239 240 241 241 240 239 239 240 240 239 238 238 239 240 241 242 243 240 241 246 245 244 241 241 240 242 240 246 247 245 248 248 244 241 240 241 242 243 243 243 243 243 243 242 241 241 240 240 241 241 241 243 242 242 243 243 243 243 243 244 243 242 243 244
238 238 238 238 238 238 235 235 235 234 236 239 238 236 236 236 237 238 239 239 239 240 239 239 239 238 239 238 237 239 240 240 240 238 239 242 242 240 241 243 242 244 247 245 244 243 243 243 241 244 247 247 248 248 245 242 240 240 240 241 241 241 241 241 241 241 240 242 242 240 239 242 242 240 240 242 242 241 242 243 242 242 243 243 242 243 243
237 238 237 237 237 236 237 237 237 239 239 237 237 237 238 238 238 238 238 238 239 239 239 239 239 239 239 239 240 241 242 242 240 239 238 241 241 241 240 244 243 243 244 246 244 243 243 242 245 247 247 247 247 247 243 241 241 241 240 241 240 240 241 241 242 241 242 241 241 241 242 241 241 241 241 241 244 243 243 243 243 242 243 243 243 243 243
237 237 236 238 236 238 239 239 238 236 235 236 238 240 240 239 239 238 237 237 238 239 240 241 242 243 241 241 241 241 240 240 240 240 242 243 244 242 240 244 242 245 246 246 243 244 243 245 246 246 246 247 247 245 242 241 242 240 240 241 239 241 241 240 241 241 241 241 241 241 240 240 239 241 240 240 240 241 242 245 244 243 242 243 242 243 244
237 237 236 236 238 238 237 235 235 235 235 235 238 242 242 238 237 237 237 237 238 239 239 239 240 241 241 241 241 240 241 242 243 241 241 241 242 243 244 245 245 245 245 243 243 243 243 244 245 246 246 246 246 243 241 240 240 239 240 240 240 240 241 241 240 240 240 240 242 243 244 243 242 240 241 243 242 242 242 242 242 243 242 243 243 245 245
238 238 239 237 237 236 234 234 234 236 236 239 241 242 243 239 238 238 238 237 237 237 238 239 240 240 240 239 240 241 242 239 239 244 239 240 239 238 239 238 241 244 245 245 244 244 245 245 245 245 246 246 245 241 241 239 240 239 238 240 240 240 239 239 240 239 240 241 241 239 240 241 240 240 240 241 242 242 242 241 243 243 242 242 243 243 242
237 238 237 235 234 233 234 235 236 238 240 241 238 241 241 239 238 239 239 238 236 238 239 239 239 240 240 240 239 240 240 241 244 245 239 237 237 237 239 241 243 244 243 242 242 242 243 244 245 245 245 245 242 240 239 239 239 240 240 240 240 240 240 241 240 239 239 240 240 241 241 242 241 240 241 242 242 242 242 243 243 242 243 243 243 243 244
236 234 235 238 237 238 238 238 239 240 242 240 241 242 239 238 240 244 241 241 241 241 241 241 242 242 242 240 241 241 240 240 241 242 243 242 239 239 242 241 241 243 243 242 239 243 243 244 244 244 244 240 240 239 238 240 238 240 239 241 241 240 241 242 244 244 243 242 241 241 242 242 242 243 243 242 243 243 243 244 243 245 246 246 244 244 243
237 238 240 241 241 242 240 241 243 243 241 242 242 240 239 239 243 244 243 241 238 240 243 244 244 244 243 243 243 242 240 240 240 241 241 241 240 242 242 242 242 242 243 243 242 242 241 239 239 240 241 241 241 239 239 239 239 240 241 241 239 241 241 241 240 240 240 241 240 241 242 241 241 241 241 242 242 243 243 243 244 243 242 243 243 243 243
240 240 240 239 239 239 239 240 240 241 241 242 242 241 242 242 242 243 243 244 243 243 243 239 245 244 241 242 242 241 239 241 240 241 242 242 241 241 242 243 242 242 242 241 241 241 240 241 242 243 243 242 240 239 242 243 242 241 241 240 241 241 241 241 241 240 239 241 241 241 242 241 241 242 242 242 242 243 243 243 243 242 243 242 242 242 242
Wind_Speed
7 4 4 0 1 3 4 4 4 7 6 4 5 7 7 3 6 12 12 11 11 14 5 5 7 7 6 6 6 6 6 7 8 9 11 12 14 14 14 14 14 14 15 15 16 17 16 17 19 18 16 16 16 16 15 16 16 15 15 15 17 16 15 14 14 13 11 9 7 6 5 3 3 3 3 3 3 3 3 4 4 5 5 6 8 7 6
5 4 4 3 5 3 1 3 6 7 8 11 8 7 6 7 8 7 9 12 15 8 1 5 2 5 4 4 4 4 6 8 9 9 10 11 12 14 15 15 15 14 15 15 15 16 17 18 19 18 17 17 16 17 17 16 16 16 14 15 15 16 15 14 15 14 13 10 9 6 5 4 3 3 3 3 4 4 5 4 4 5 5 6 6 8 8
6 6 1 4 4 4 4 6 6 6 6 9 10 8 6 5 7 10 11 12 14 2 4 4 4 5 4 4 5 5 6 7 7 9 9 10 12 13 14 15 15 15 15 15 15 16 16 17 19 17 16 16 16 16 16 16 17 16 15 14 14 14 15 15 14 15 14 11 9 7 6 4 3 3 3 4 5 5 5 5 5 4 5 6 6 6 7
3 1 1 1 2 2 4 5 6 8 8 7 6 9 8 10 10 10 11 8 5 3 3 3 4 8 8 7 6 4 4 5 6 7 8 9 11 12 14 15 15 15 16 17 16 16 16 16 17 17 18 17 16 16 16 17 16 16 15 13 13 13 14 15 15 14 14 14 10 8 6 5 3 2 3 4 5 5 5 6 5 4 5 5 6 6 6
6 3 3 3 1 2 4 6 11 13 11 9 9 10 8 8 3 7 6 8 1 2 3 2 3 2 3 3 6 4 4 4 5 5 6 7 8 10 12 14 15 15 14 15 16 16 14 14 14 16 16 17 16 17 17 17 16 16 15 13 12 12 13 14 14 15 14 15 12 8 7 5 3 3 4 5 5 5 6 4 5 6 5 6 6 5 6
1 5 1 1 2 7 8 1 7 10 10 11 11 10 10 3 1 3 2 2 3 3 4 3 3 6 6 7 7 4 4 4 5 7 6 6 6 7 9 10 13 15 15 15 14 14 15 14 14 14 14 15 16 16 15 15 15 15 15 14 11 11 11 13 14 14 14 14 13 11 7 5 3 3 4 5 5 5 5 5 6 6 6 7 6 6 6
5 1 1 2 9 11 0 3 4 4 1 1 5 3 2 1 2 1 1 2 4 2 3 1 4 6 9 9 7 3 6 6 5 6 6 7 9 8 9 10 12 13 15 17 18 17 16 15 15 14 13 13 15 15 15 16 15 14 14 14 12 11 10 11 13 13 13 13 13 13 10 5 3 3 4 5 6 4 4 4 6 5 5 7 6 6 7
0 3 2 1 7 2 1 2 2 3 4 2 6 2 4 1 1 1 1 0 1 1 1 2 4 7 10 8 3 4 6 7 7 9 8 10 10 11 10 12 12 13 14 15 16 17 16 15 14 14 14 14 14 15 15 14 14 14 14 14 12 11 11 11 12 13 13 13 13 12 12 7 3 2 4 5 6 6 5 5 6 6 7 6 7 7 7
3 3 5 10 3 7 7 5 1 1 1 1 2 4 4 5 2 2 2 1 1 3 3 4 5 8 7 5 3 6 6 6 4 8 7 9 10 11 12 12 13 13 13 13 13 14 14 14 15 14 14 14 14 14 14 13 14 14 14 13 13 12 11 11 11 13 12 12 12 12 12 9 3 1 4 6 6 5 5 5 5 6 6 6 5 6 8
7 3 2 3 2 5 6 3 4 1 2 1 3 2 5 3 3 2 1 2 3 2 4 4 6 7 2 5 2 3 5 6 4 6 5 6 7 11 12 12 11 13 12 11 12 12 13 13 12 12 14 14 13 12 12 12 13 13 13 13 14 13 12 11 11 12 13 11 11 11 11 10 7 1 2 4 5 4 5 6 6 5 4 6 7 7 8
4 1 2 3 3 7 6 4 5 1 1 3 4 4 6 2 4 2 3 2 2 2 1 3 3 4 3 6 1 1 7 7 7 9 8 6 8 9 9 10 12 13 10 12 14 13 12 12 12 12 14 14 13 12 12 12 11 12 12 12 14 15 14 12 11 12 12 11 10 9 10 9 8 3 2 4 5 5 5 6 6 5 6 6 7 7 7
3 1 1 4 3 4 2 4 1 2 1 2 0 3 7 1 5 3 1 3 2 2 2 1 0 1 5 6 0 6 8 9 8 8 9 8 9 9 9 8 10 11 11 13 13 13 13 12 12 13 13 12 12 12 12 11 11 12 12 13 14 15 15 13 11 10 11 11 10 9 9 10 8 5 1 4 6 7 6 5 6 7 6 7 8 8 7
7 6 5 2 5 1 2 3 2 3 2 2 3 7 3 3 5 3 3 3 1 1 1 2 1 3 1 5 9 9 9 9 8 6 6 7 8 10 9 10 14 10 10 10 12 13 13 13 12 11 12 11 11 11 12 11 11 11 12 13 15 16 15 13 11 11 10 9 10 10 8 8 8 6 1 4 6 7 8 6 7 9 8 7 8 8 7
4 5 4 8 5 4 1 0 1 2 2 1 8 2 0 3 3 3 3 1 0 2 1 2 4 5 6 7 8 9 9 8 9 7 7 8 9 8 8 12 13 10 11 12 13 12 12 12 12 11 11 11 11 11 10 11 12 12 12 13 13 15 15 14 12 10 10 10 9 8 7 7 7 2 1 3 5 7 6 6 7 10 10 7 8 9 8
1 1 1 3 4 1 1 4 2 0 3 4 1 2 2 2 2 1 2 2 1 1 2 3 4 6 7 8 9 9 9 9 10 9 9 10 10 11 12 12 10 12 11 12 12 13 12 11 10 11 12 12 11 11 11 12 11 11 13 12 13 15 15 14 11 9 10 11 9 6 7 6 7 1 2 4 5 6 7 8 8 9 9 8 8 8 9
3 1 2 3 3 2 1 1 4 2 0 2 4 2 2 3 1 1 1 2 1 2 2 5 5 5 8 8 7 9 8 9 10 9 9 8 9 10 10 10 12 13 12 12 12 12 12 10 9 10 10 11 11 13 13 11 10 12 12 12 13 14 14 12 9 8 9 10 8 6 6 5 4 0 3 4 5 4 5 6 7 8 7 8 8 9 9
4 4 3 2 2 2 0 1 0 1 1 1 1 1 0 2 1 0 1 3 4 4 5 7 7 7 6 8 9 10 10 10 11 11 10 9 10 10 11 12 13 11 11 14 13 13 11 11 10 10 9 9 11 13 12 10 12 13 13 12 12 13 14 11 8 7 9 9 7 4 4 3 2 1 2 3 6 3 4 5 6 8 6 5 7 8 9
2 1 1 1 0 1 1 1 1 3 2 1 2 2 1 1 0 1 1 3 4 5 4 6 4 6 8 10 10 9 11 11 12 10 9 9 8 8 10 10 12 12 12 12 12 13 13 11 10 9 8 7 10 12 11 10 12 12 13 12 12 13 13 10 7 8 9 9 6 4 4 3 2 2 1 4 5 5 5 5 5 6 6 6 7 7 8
3 6 1 2 3 0 1 2 2 2 2 1 1 1 1 0 1 2 3 2 2 2 1 3 7 8 6 9 8 8 10 10 10 10 10 9 8 10 11 11 12 12 11 12 13 14 15 12 10 9 9 8 8 10 10 10 11 11 12 11 11 12 12 9 7 7 8 7 5 4 3 3 3 4 4 5 6 7 6 5 6 6 7 7 7 7 6
3 6 2 4 1 1 3 4 3 3 3 2 1 1 0 1 2 2 1 1 2 1 3 4 6 8 8 8 9 9 9 9 10 10 9 9 10 10 9 10 11 12 12 12 13 14 13 12 11 11 10 9 9 9 9 10 10 11 12 9 9 12 13 10 6 5 7 9 7 3 4 4 5 6 6 6 7 7 6 5 5 6 6 6 6 6 6
6 3 3 1 2 2 3 2 1 1 4 3 1 1 1 1 2 1 2 1 2 2 5 5 6 7 8 6 8 9 10 9 10 9 10 10 10 11 12 10 10 11 12 13 13 13 13 11 11 11 10 9 9 9 8 10 11 11 11 10 10 11 11 8 5 5 6 6 5 5 3 7 7 7 5 6 7 8 8 6 6 5 6 7 7 6 6
5 8 4 6 1 6 1 4 4 3 2 2 2 1 3 1 1 1 2 6 4 4 4 5 5 7 8 7 7 9 9 9 10 11 11 10 11 11 9 9 9 11 12 12 13 13 12 11 11 11 10 9 9 8 8 9 10 10 12 9 7 9 9 7 5 5 5 5 5 5 5 6 7 8 16 18 10 8 8 14 17 16 12 8 6 5 6
5 0 1 0 1 1 0 3 4 3 2 2 3 4 3 3 1 2 3 7 7 6 5 3 5 6 8 9 8 9 8 9 9 9 10 11 10 10 9 9 10 10 11 12 12 12 11 11 11 10 10 10 9 8 9 10 10 10 10 7 6 8 8 7 7 5 5 5 5 5 5 5 6 6 7 12 23 22 16 15 16 18 18 18 15 12 7
1 2 2 2 2 2 2 3 3 2 2 3 3 1 0 1 3 4 4 5 6 9 6 5 4 7 8 8 7 9 10 9 9 9 9 9 9 9 8 9 10 12 12 12 12 12 11 11 10 10 10 9 9 8 9 10 10 9 9 7 5 7 8 7 7 6 4 4 5 5 5 6 5 5 7 9 9 17 23 22 19 17 17 15 14 13 14
3 2 2 2 1 2 1 1 0 2 2 2 2 2 2 4 4 4 5 5 5 5 8 8 6 5 7 8 7 9 9 9 8 9 11 10 11 10 9 9 10 10 10 10 11 10 10 10 10 10 10 9 8 8 9 9 9 9 9 7 5 6 7 7 6 6 5 4 4 5 5 6 5 5 6 6 6 6 10 16 20 22 22 21 19 16 15
2 2 1 0 1 2 2 1 1 3 1 1 0 1 3 5 4 4 4 4 5 4 6 7 8 7 5 7 7 7 8 9 10 10 8 8 8 8 8 9 10 9 10 10 10 10 10 10 10 10 9 9 9 9 9 9 9 9 8 7 6 5 5 7 6 5 5 5 5 5 5 5 5 5 5 5 5 5 6 5 7 11 15 20 20 18 19
2 3 1 2 4 3 1 4 2 1 1 1 2 4 4 4 5 4 4 4 5 6 7 8 7 7 5 5 7 7 8 9 9 7 7 7 9 8 8 8 9 10 11 10 10 9 10 9 9 9 9 8 9 9 9 10 10 9 8 8 6 7 11 9 6 6 5 5 5 5 5 5 5 5 5 5 5 5 4 4 5 5 4 7 13 17 12
1 2 3 3 3 1 1 0 0 1 2 3 4 4 4 3 3 4 5 6 5 4 5 6 6 4 7 5 5 8 8 8 8 8 9 9 8 8 9 9 10 10 9 9 9 8 9 8 8 8 8 8 9 9 9 9 10 8 8 7 7 5 6 7 6 6 6 5 5 5 5 4 5 4 5 5 5 5 4 4 4 4 4 5 4 8 15
4 4 3 4 4 2 1 1 2 3 4 3 3 3 3 4 5 5 5 5 5 5 6 6 4 5 6 7 6 8 8 8 9 10 10 9 9 9 9 9 8 9 9 9 8 7 8 8 8 8 7 8 9 8 8 9 8 8 7 6 6 5 6 6 6 6 6 6 6 6 6 6 5 5 5 5 4 4 4 4 4 4 4 3 4 6 7
6 4 3 3 2 0 2 5 5 6 4 4 3 4 3 3 5 6 5 6 4 5 6 7 7 5 4 6 6 7 8 9 9 10 10 10 9 9 8 8 9 8 7 7 7 8 8 8 8 8 7 8 9 8 8 8 7 8 8 8 6 5 5 5 5 6 6 5 6 8 6 6 6 5 4 4 3 3 4 5 5 4 4 5 5 5 6
2 1 2 1 3 2 4 6 5 5 5 4 4 4 4 2 4 6 6 6 4 5 6 6 6 7 6 5 6 7 8 9 9 10 10 10 9 8 7 7 7 7 7 8 9 8 8 8 7 7 7 8 8 8 8 7 7 7 7 6 6 9 12 11 8 6 6 6 6 6 5 5 4 3 3 2 2 3 4 4 4 4 5 5 6 6 5
2 2 5 4 4 4 5 5 5 6 5 4 2 4 4 4 6 7 7 5 5 5 6 6 7 7 7 5 6 7 7 8 9 9 9 9 8 6 7 7 8 9 9 9 8 7 7 7 7 7 8 8 8 7 7 7 6 6 7 7 6 5 8 12 7 7 6 5 5 4 4 3 3 3 2 3 3 3 3 5 5 5 5 6 6 5 4
4 5 7 4 4 2 5 5 4 6 4 4 5 5 4 5 5 6 7 6 6 6 6 7 7 6 6 6 7 7 7 8 8 9 8 7 7 7 7 7 7 8 9 8 7 7 6 6 6 7 7 7 7 7 7 7 6 6 6 6 5 6 6 7 6 5 4 4 3 3 2 3 2 2 3 3 3 3 4 5 5 5 5 5 5 4 4
9 8 4 2 5 4 5 5 3 4 4 4 5 5 5 5 5 6 6 5 6 7 8 7 6 6 6 7 7 7 7 8 7 6 6 8 8 8 7 7 7 9 8 8 7 5 2 4 5 5 6 7 6 6 6 6 5 5 6 5 5 5 4 4 4 3 3 3 3 3 2 3 4 3 3 3 3 3 4 4 5 5 5 5 4 4 6
6 5 3 3 3 3 3 5 4 5 4 7 6 5 6 5 5 6 5 6 7 7 6 6 5 6 6 6 6 6 6 7 8 8 9 8 8 9 8 9 9 8 8 7 5 2 2 5 5 5 6 5 5 6 6 6 5 5 5 5 5 4 4 3 3 3 3 2 2 3 3 4 4 3 4 4 4 4 5 5 5 5 5 5 4 4 4
4 6 5 4 4 6 5 7 5 6 6 6 6 6 6 6 7 6 6 8 5 5 6 6 6 5 6 6 6 6 6 7 7 8 8 8 8 7 8 9 9 9 7 7 2 1 4 4 6 8 5 4 4 5 6 6 5 5 5 5 4 4 4 3 3 2 2 2 3 3 3 3 3 4 4 4 4 4 5 4 4 4 3 3 2 3 3
4 6 6 5 5 4 7 5 5 5 6 6 6 6 8 7 6 7 5 6 6 6 5 5 5 5 7 6 6 7 6 7 7 7 7 6 6 6 8 9 8 7 5 5 1 2 3 3 7 8 5 4 4 5 6 9 5 4 4 4 4 4 4 3 3 3 3 3 3 3 3 4 3 4 4 4 4 3 3 3 4 3 1 1 1 1 3
5 6 6 6 5 6 8 7 5 4 6 7 7 7 8 7 6 5 5 7 6 5 4 5 6 6 7 6 5 7 8 6 6 7 7 7 5 7 8 6 6 4 5 5 1 3 3 5 7 5 3 2 3 4 6 9 8 4 4 4 4 4 4 3 4 4 4 4 4 3 3 3 3 4 3 3 2 2 2 2 1 1 1 1 1 1 1
4 3 3 5 3 5 6 4 2 3 5 9 9 8 6 5 5 5 6 8 7 4 5 6 5 5 6 6 8 7 7 6 5 7 7 7 6 4 8 8 8 8 8 5 4 5 4 4 4 3 3 4 4 4 5 7 7 4 4 3 4 3 3 3 4 4 4 4 3 3 3 2 2 1 2 1 1 1 2 2 1 1 1 1 1 1 1
6 5 6 4 5 6 5 6 5 6 6 5 5 9 6 4 5 5 6 7 7 4 5 4 4 6 6 6 6 8 7 5 5 6 9 7 4 6 8 8 7 7 7 7 6 4 4 4 4 3 4 5 4 3 4 5 5 3 4 3 3 4 3 3 2 3 3 3 3 3 3 3 1 2 1 1 1 1 2 1 1 1 1 1 1 1 2
7 6 5 4 6 3 5 5 7 6 5 5 6 7 5 5 5 5 7 8 6 3 5 4 4 7 7 8 8 9 8 8 6 8 6 4 5 4 4 7 5 3 3 2 1 2 3 3 3 5 5 5 5 5 4 5 3 3 3 4 3 4 3 2 2 1 3 3 4 3 3 3 2 2 3 1 1 1 1 1 1 1 1 1 2 1 1
7 5 5 5 5 5 6 5 4 6 7 6 7 6 6 5 5 8 8 5 5 4 5 6 7 9 8 7 7 7 8 8 6 6 4 5 6 4 5 6 3 2 3 4 2 2 2 3 4 5 6 6 6 7 7 5 2 3 3 4 4 3 3 2 2 3 3 2 2 3 4 2 2 2 1 2 1 2 1 1 2 2 2 1 2 2 2
8 8 8 7 6 6 5 5 5 7 8 8 5 6 6 4 5 6 6 6 6 6 6 6 6 7 7 7 6 7 9 6 5 5 5 7 9 9 9 6 3 4 6 6 4 3 4 3 5 4 6 7 6 9 8 5 2 3 3 5 4 3 3 2 2 2 2 3 4 3 2 3 3 3 2 3 3 3 2 2 3 4 3 3 3 3 3
8 6 6 6 7 6 4 4 4 3 5 9 4 3 5 5 5 6 7 7 7 6 6 7 6 6 6 5 4 6 7 5 5 2 4 7 6 4 9 8 7 6 6 5 2 4 5 3 3 5 8 9 9 9 6 3 2 3 3 4 4 4 4 4 3 2 2 3 3 4 4 4 3 4 3 4 4 4 3 3 3 4 3 4 3 4 4
8 7 8 9 8 3 4 5 6 8 6 4 5 6 6 8 8 7 7 7 8 8 5 6 6 6 6 5 6 7 7 5 5 2 3 6 4 3 3 6 6 4 5 5 4 4 4 4 5 8 8 9 8 7 3 2 3 3 3 4 4 4 4 4 4 4 4 3 3 3 5 3 4 4 4 5 5 4 5 4 4 4 5 4 4 4 4
7 7 6 5 5 8 8 6 4 1 3 4 7 9 8 8 8 6 6 8 8 8 8 7 6 7 6 6 6 6 6 7 7 6 8 8 7 4 1 3 4 4 6 6 4 5 5 6 8 9 8 8 8 5 3 3 4 3 3 4 3 5 4 4 4 4 4 4 4 4 4 4 4 5 4 5 5 4 4 5 5 3 3 4 4 5 5
6 4 5 9 8 6 3 1 1 1 1 3 6 9 5 2 4 5 6 9 9 8 6 6 7 8 6 6 7 5 6 7 7 5 8 7 8 7 7 6 6 6 6 5 5 5 6 5 6 8 9 8 7 4 4 4 4 3 4 4 4 4 5 4 4 5 4 4 5 5 5 5 5 4 5 4 4 5 4 4 5 5 4 5 4 5 5
6 8 9 10 10 7 2 2 1 4 6 10 9 7 7 3 4 5 5 5 7 7 7 7 7 8 7 7 7 7 7 4 3 8 3 6 5 4 4 4 6 6 6 6 7 5 7 8 9 9 9 8 6 4 5 4 4 4 3 4 4 5 5 5 4 4 4 3 3 3 5 5 4 3 4 5 5 5 5 4 5 4 4 4 4 5 4
8 9 6 4 3 5 5 4 4 6 8 8 4 8 6 5 6 7 7 7 8 7 8 9 10 9 7 8 6 7 7 7 8 8 1 2 4 4 5 4 6 6 6 5 6 6 6 7 8 9 8 7 5 5 4 5 4 5 5 5 4 5 4 5 6 4 4 4 4 4 5 5 5 4 5 5 5 5 5 5 5 4 5 4 5 6 5
4 2 3 5 5 6 7 6 7 9 8 5 7 7 3 1 4 8 5 5 6 6 6 6 7 7 7 6 7 7 7 8 9 9 8 6 4 4 6 6 6 6 6 6 5 7 5 6 6 6 6 4 5 4 4 6 4 5 4 6 5 4 5 6 5 5 4 5 5 4 5 5 5 5 6 4 5 5 5 5 5 6 7 6 6 5 4
5 6 7 8 7 7 7 9 9 7 6 7 6 4 3 4 7 8 5 5 3 5 7 7 7 7 6 7 6 6 6 6 7 7 7 7 5 6 6 6 6 6 7 6 6 7 6 4 5 6 5 4 5 4 4 4 5 5 5 5 4 5 5 6 5 4 4 5 4 5 5 5 5 5 5 5 5 5 6 6 5 5 5 5 5 5 5
6 6 5 3 5 5 5 7 7 7 7 7 6 5 6 6 6 7 7 6 7 7 7 4 9 6 3 5 5 5 4 5 6 6 6 7 5 6 6 5 6 6 6 6 6 6 6 6 6 5 5 5 5 5 5 5 5 5 5 6 4 5 6 6 6 5 4 5 5 5 5 5 5 6 6 5 5 6 6 5 5 5 5 5 5 5 5
Wind_Direction
241 215 214 157 117 186 220 202 241 281 243 201 196 233 234 230 212 255 289 297 295 291 329 67 24 14 2 19 29 31 19 11 11 6 0 355 349 350 357 355 353 355 355 350 346 346 345 343 341 340 341 339 339 336 335 331 332 332 329 336 337 337 338 337 334 329 325 322 319 332 339 352 11 18 32 45 52 62 69 75 81 93 102 109 112 107 99
289 284 181 217 155 237 209 225 242 235 259 265 243 230 231 219 235 249 264 273 271 290 39 88 29 19 349 11 42 27 27 11 8 5 1 359 351 347 348 347 348 347 347 347 346 343 343 344 340 339 339 339 338 336 332 331 330 327 331 334 335 335 337 337 334 330 327 323 325 326 347 354 1 23 44 56 67 71 67 71 81 92 102 103 107 112 111
285 271 212 145 174 206 213 242 236 247 249 253 263 276 265 234 248 248 254 260 267 72 77 69 24 14 350 57 24 27 24 15 9 8 359 357 352 343 342 342 341 343 341 341 343 345 343 343 339 336 334 334 332 332 329 330 329 324 329 330 333 333 333 335 334 334 331 327 324 329 332 348 2 35 58 69 81 82 80 79 80 77 93 101 101 106 109
291 301 117 225 174 210 223 252 248 240 237 250 256 255 251 252 256 259 258 262 262 99 53 47 28 5 357 1 3 21 15 29 18 8 5 354 347 344 338 336 336 339 339 338 340 340 341 340 337 336 333 332 332 330 330 328 324 321 325 328 331 333 333 333 337 337 335 327 328 326 334 342 354 25 66 78 83 87 88 87 77 78 85 88 92 98 103
255 273 141 207 210 26 332 262 235 234 238 240 249 251 262 263 280 265 257 253 46 54 2 49 330 10 309 347 349 3 8 28 23 7 10 349 342 338 336 332 332 333 334 334 332 333 334 335 335 333 330 328 327 327 328 323 320 322 323 326 327 333 333 335 332 337 334 332 326 328 329 330 347 36 75 82 83 87 87 81 83 84 87 86 79 79 94
300 85 49 360 14 264 249 232 167 204 217 229 234 240 245 266 70 236 33 106 94 49 38 26 324 347 324 337 339 57 49 27 4 359 352 343 330 337 329 327 328 327 328 328 328 327 328 327 333 325 327 323 321 324 320 318 322 321 325 321 325 327 333 335 333 331 334 331 329 325 323 328 352 44 75 86 86 84 85 85 92 93 85 87 80 78 80
256 262 34 328 255 257 13 20 49 49 135 360 237 240 22 307 350 13 93 65 72 50 58 329 314 307 302 317 312 75 55 45 15 355 344 334 336 334 328 328 327 324 324 324 325 328 329 331 331 326 324 322 323 322 321 323 322 322 324 319 321 329 331 331 333 329 329 329 326 327 322 325 348 57 84 90 89 84 59 75 89 86 89 94 84 81 81
137 67 187 184 244 241 321 270 12 303 63 106 86 336 207 261 185 335 174 99 63 59 307 334 308 302 301 300 278 92 52 40 15 358 342 337 337 332 327 327 324 323 323 321 322 322 324 327 324 325 321 323 325 318 320 322 320 325 323 320 319 326 330 331 330 325 325 327 324 325 323 318 334 68 93 99 100 106 87 63 56 73 75 73 83 80 80
184 183 197 231 317 340 302 268 335 32 200 86 113 224 264 180 156 171 205 277 358 333 332 331 324 303 302 280 223 100 50 20 26 353 337 327 330 326 322 322 321 321 318 315 317 317 317 317 321 320 321 324 320 319 322 321 326 325 324 322 321 324 321 325 326 321 319 324 322 324 325 318 321 35 111 113 110 116 94 81 79 70 81 69 62 72 78
148 192 295 336 308 263 280 225 72 136 355 41 291 86 279 129 272 167 205 195 277 302 298 323 314 305 311 289 197 105 28 358 356 344 325 318 325 322 318 320 317 319 316 318 320 315 311 311 311 315 323 319 319 319 318 320 326 324 325 322 320 319 314 317 320 315 314 319 319 322 326 321 316 339 95 107 117 124 104 104 88 76 83 79 69 67 76
64 351 188 220 195 241 215 150 179 90 35 344 297 70 291 154 202 158 178 211 249 242 256 300 338 344 309 282 143 4 360 340 354 335 322 322 324 315 317 317 320 315 323 325 320 316 309 310 314 322 321 318 321 321 320 322 324 322 318 318 318 313 308 309 311 309 310 316 317 317 321 316 313 313 122 128 125 110 98 98 100 103 104 97 88 72 64
207 160 185 247 201 250 237 186 151 212 329 278 48 19 280 209 211 239 190 209 243 245 177 225 123 237 268 297 13 358 341 332 325 324 318 327 322 318 313 317 309 315 325 321 319 318 316 313 318 321 317 319 321 320 319 320 324 317 316 318 313 307 302 302 302 306 309 313 313 315 315 313 309 309 310 111 115 117 112 102 109 116 106 103 99 88 82
236 219 260 335 303 286 241 231 242 283 214 74 96 214 240 168 190 210 221 230 235 198 155 244 170 243 293 307 315 324 322 319 314 311 321 313 320 312 313 318 322 323 316 315 313 312 312 314 319 318 317 318 320 319 318 320 316 314 318 318 311 305 301 300 298 304 310 311 311 311 308 302 296 295 345 128 120 119 121 118 118 124 117 112 97 87 78
217 213 188 236 241 242 159 212 292 256 67 113 215 236 16 152 192 201 214 194 152 148 208 238 248 278 301 301 307 307 310 309 306 312 312 320 313 303 311 319 321 317 316 313 312 310 310 315 317 317 316 318 317 317 317 316 313 319 319 312 308 305 300 294 295 307 310 308 305 302 306 307 302 304 15 81 116 120 120 127 128 124 124 114 98 89 77
54 69 247 320 301 276 103 177 38 347 140 221 119 148 232 180 291 204 256 139 262 58 269 264 271 289 296 296 301 304 306 312 312 316 324 320 317 321 325 321 321 321 315 313 311 310 311 313 314 314 314 314 316 316 315 311 318 322 312 311 309 303 296 290 295 310 310 304 304 306 311 308 301 298 99 104 109 118 128 131 123 117 113 108 99 91 82
218 165 173 204 209 195 222 215 176 232 301 116 174 140 142 149 245 239 285 282 55 338 310 298 295 288 296 300 300 304 306 306 308 311 311 309 312 315 309 310 313 317 311 308 306 306 309 308 311 312 312 310 316 316 313 314 327 316 313 311 308 302 293 287 300 314 310 300 300 309 311 313 306 295 106 116 113 126 137 128 121 107 97 102 102 95 89
147 209 212 237 214 209 275 242 307 150 154 133 180 99 95 168 126 117 316 291 317 316 308 300 299 303 297 298 305 305 306 309 310 310 310 314 313 312 315 314 315 312 308 309 307 304 305 310 313 309 306 310 313 313 310 327 322 317 314 312 308 300 292 290 306 314 310 300 298 314 322 332 324 341 103 110 111 104 106 100 102 101 94 95 95 96 89
268 237 157 90 62 233 245 54 146 150 126 113 95 144 175 83 60 38 268 301 299 298 304 300 296 288 299 301 301 301 304 304 304 304 304 305 300 304 309 310 312 313 309 304 303 304 308 313 311 306 304 311 313 309 316 319 319 316 311 308 307 300 293 296 309 324 307 298 304 327 349 352 360 350 55 86 94 82 74 85 90 94 100 92 87 86 88
46 276 82 212 215 167 148 131 93 88 122 147 126 99 143 347 339 296 295 278 289 286 328 280 287 296 296 295 297 300 297 300 303 305 302 299 303 311 314 310 314 310 308 308 309 312 312 315 314 308 308 312 307 310 312 319 321 312 303 302 307 306 299 303 318 329 306 298 310 337 17 15 34 38 45 62 72 70 66 74 77 81 88 91 91 88 90
182 249 215 231 276 261 191 171 167 173 142 98 81 74 50 294 290 279 277 65 289 300 290 286 295 293 297 295 296 297 298 301 305 301 300 304 308 307 304 306 305 303 305 305 309 313 311 312 313 310 310 313 316 313 315 322 318 311 305 304 316 309 303 302 319 324 308 313 322 337 40 41 53 47 49 55 62 61 60 59 78 83 84 81 81 89 93
271 291 221 209 204 207 194 175 151 138 147 180 216 248 262 294 274 296 325 251 251 269 278 292 288 290 286 286 292 293 296 297 298 302 302 303 303 306 309 305 305 303 305 307 308 309 309 310 308 308 310 316 319 315 325 323 323 317 309 315 323 306 299 302 315 342 312 315 321 334 39 74 65 58 58 61 68 79 67 55 64 87 93 77 73 75 84
263 248 247 146 253 283 209 203 179 139 149 145 246 283 293 254 238 274 307 300 283 261 262 272 274 276 285 287 291 289 289 290 293 298 302 302 302 301 298 298 300 301 303 306 308 308 307 307 308 310 316 320 318 320 330 324 325 315 313 313 320 311 304 304 314 345 329 330 342 360 3 61 71 59 48 56 77 87 76 85 92 91 87 85 83 78 84
250 231 187 267 73 32 26 148 150 150 189 191 217 238 228 227 225 243 277 293 300 292 274 251 267 272 279 285 289 287 287 287 290 293 297 299 299 299 304 307 305 306 308 310 308 307 306 308 307 314 320 319 319 329 333 322 322 310 301 305 323 310 312 310 331 346 335 330 342 3 15 31 66 70 82 46 43 56 82 97 93 88 91 95 93 86 76
324 154 183 164 157 207 152 145 158 189 192 192 236 197 190 243 262 271 268 256 273 289 292 278 245 266 278 281 284 285 288 289 293 296 292 290 290 297 303 300 303 308 311 312 310 308 307 305 311 322 319 318 325 333 326 322 318 304 294 297 316 318 315 315 330 341 342 347 360 7 21 33 43 70 76 80 66 44 41 46 58 81 97 100 96 89 81
249 114 170 188 204 258 58 105 140 157 146 137 176 240 243 270 277 256 260 270 251 263 284 290 287 267 270 278 278 278 285 291 292 293 299 302 304 304 302 303 304 308 308 305 303 302 301 302 316 321 320 319 332 331 326 324 316 307 301 298 309 323 320 322 334 340 349 359 9 15 18 27 30 25 56 72 74 67 37 43 47 44 42 44 48 63 83
124 146 87 22 355 280 270 338 288 149 150 127 225 254 266 273 272 271 260 257 271 268 270 276 282 277 263 272 278 281 285 286 292 302 301 299 300 301 301 305 307 304 301 300 303 299 298 312 320 318 321 325 338 331 328 327 316 305 302 307 315 317 328 337 337 345 350 7 14 21 29 35 38 49 43 44 61 69 88 72 42 38 35 38 36 32 36
91 106 109 354 310 285 185 192 229 149 283 249 256 259 265 257 274 282 278 273 262 265 266 269 268 275 277 272 279 285 290 297 302 298 295 296 297 299 303 301 301 299 299 303 303 302 318 323 317 320 325 333 338 323 330 332 321 311 323 331 326 337 353 357 344 352 353 3 19 23 28 32 38 39 58 54 60 57 68 77 84 62 21 33 38 43 39
169 189 161 185 226 222 228 235 192 267 261 268 279 280 274 296 307 303 298 294 285 272 266 263 272 287 294 295 302 303 303 302 304 307 304 299 301 302 300 300 299 298 303 303 298 311 322 316 315 321 325 339 335 323 335 334 323 322 334 330 331 342 359 0 356 355 360 2 18 27 28 22 32 47 63 69 71 82 79 76 80 86 76 46 33 43 44
232 221 229 232 241 226 254 294 309 286 289 279 267 276 286 294 281 279 281 275 278 287 286 290 293 292 290 301 308 302 302 306 308 305 303 302 303 303 300 298 301 306 304 297 302 319 317 314 319 328 331 342 332 324 338 337 328 330 335 332 327 332 10 10 6 1 2 13 19 29 36 34 33 42 51 57 66 90 91 90 82 74 64 50 37 45 46
229 225 220 240 256 328 326 290 276 285 279 283 303 288 262 249 280 276 275 282 282 281 289 298 295 292 297 301 299 300 306 307 305 301 300 302 303 300 300 313 316 303 297 302 316 322 318 318 325 331 335 339 329 325 339 341 332 326 324 330 327 351 12 16 15 9 15 14 23 31 27 32 39 46 57 65 77 83 88 87 85 81 68 67 60 62 48
189 158 182 293 313 309 249 260 272 271 276 279 257 266 287 252 251 277 281 281 285 284 292 296 297 298 297 287 295 301 302 299 298 298 297 298 296 298 312 321 320 316 316 313 316 315 314 319 327 326 338 329 327 329 344 345 336 327 329 337 328 6 25 25 25 23 17 19 21 26 30 36 23 35 51 52 73 68 69 74 78 71 74 73 65 60 44
126 277 312 289 262 264 272 266 262 266 261 261 279 266 251 261 277 276 282 285 276 284 296 295 292 292 295 299 298 299 297 295 295 295 295 290 290 308 314 312 308 304 302 302 302 307 307 318 321 329 329 328 330 336 349 343 341 337 338 335 337 338 16 25 22 24 24 25 30 32 32 26 31 35 39 40 27 39 55 80 76 74 69 69 62 42 36
150 301 300 276 259 251 260 258 232 262 254 257 245 248 261 252 255 267 269 277 291 289 286 283 285 289 293 297 299 298 298 298 292 284 286 297 308 310 310 307 307 303 299 294 290 290 294 312 314 321 323 333 331 343 347 343 346 340 329 336 327 353 12 24 33 30 29 29 28 33 18 32 17 25 31 36 25 52 74 77 79 78 73 66 59 21 46
187 200 194 191 172 212 238 264 215 237 258 251 254 260 265 262 252 261 270 277 278 282 274 276 278 283 291 292 294 295 300 307 303 300 304 303 301 303 306 307 304 301 294 289 284 271 290 312 311 314 330 331 329 342 342 337 353 341 339 334 345 352 1 10 20 28 25 21 9 10 18 39 47 44 32 31 43 62 65 72 71 73 75 62 50 18 50
209 235 223 212 211 224 221 236 250 249 261 276 275 262 255 264 269 265 267 269 265 264 270 276 280 284 286 287 288 287 287 280 284 292 297 302 301 306 310 313 311 309 303 298 285 285 326 314 306 316 334 327 330 346 337 336 356 351 337 341 339 346 348 359 8 18 16 3 353 18 37 41 44 41 42 43 44 46 53 58 56 59 61 59 39 30 35
204 235 249 248 236 226 229 234 239 242 245 251 260 266 271 264 264 267 268 264 262 272 272 275 278 287 287 283 283 279 280 278 280 283 287 292 299 307 310 308 312 313 309 307 300 360 332 319 327 342 341 326 340 341 339 343 2 351 344 340 335 339 344 353 352 356 12 18 29 31 37 44 43 41 39 38 41 44 50 53 53 49 50 47 33 27 19
208 218 232 237 239 224 228 233 233 231 237 243 254 264 269 268 258 261 267 274 275 267 268 272 281 276 272 269 265 272 269 272 272 277 280 289 301 306 302 302 300 290 298 298 314 10 334 330 336 348 343 332 331 334 338 350 359 354 342 341 340 342 345 348 353 11 6 7 17 23 29 39 47 36 34 34 40 37 43 46 40 39 37 30 24 20 6
218 213 225 231 234 233 238 239 232 225 244 268 260 248 252 265 271 268 267 269 269 269 267 262 260 265 274 280 278 274 274 272 271 275 280 288 295 304 297 285 285 282 281 257 322 356 339 334 335 337 322 313 321 326 335 341 356 358 343 341 340 339 341 348 349 355 358 355 4 15 24 35 42 35 25 37 41 46 42 39 24 51 13 17 351 350 341
243 228 232 236 237 236 250 266 251 233 218 236 258 265 257 251 261 268 272 269 267 266 272 269 272 281 276 284 286 284 278 272 269 270 277 286 289 283 276 270 262 254 249 271 308 300 309 315 342 330 324 322 315 313 326 335 351 358 341 330 331 334 334 343 343 336 340 346 344 2 7 358 12 12 20 8 13 23 16 6 9 42 5 328 352 330 321
232 223 229 227 237 246 249 258 257 250 245 230 240 260 264 261 259 259 267 275 271 259 255 263 273 275 278 276 278 283 282 281 278 283 285 289 296 293 288 282 259 251 252 259 256 258 268 317 342 330 319 318 315 305 315 331 343 351 341 329 316 318 318 326 328 332 334 343 342 345 343 335 321 333 317 336 354 350 340 351 352 338 322 321 308 293 306
228 231 235 209 237 232 235 252 263 260 259 256 243 249 255 248 256 262 260 257 268 250 240 234 244 262 261 262 267 274 286 289 286 280 285 311 298 280 287 290 276 275 274 263 242 246 298 319 322 316 313 311 312 296 297 309 346 349 324 319 305 303 300 304 304 317 321 321 321 323 312 308 314 320 309 318 311 310 302 304 302 287 278 286 290 286 272
235 224 237 242 244 240 244 245 268 291 279 254 253 254 254 239 229 241 255 265 269 257 249 248 235 248 262 267 270 278 282 282 284 280 261 241 253 270 276 273 269 280 294 298 286 300 298 302 303 303 303 303 300 298 296 300 336 326 315 308 299 293 286 285 290 293 292 293 294 294 296 293 295 294 297 299 302 296 305 306 307 300 291 280 273 274 275
227 216 223 228 239 242 241 239 237 249 274 281 265 259 256 247 238 251 260 261 257 261 255 253 252 255 260 266 274 282 280 285 282 281 278 255 236 223 225 251 271 292 295 291 278 268 271 276 283 288 289 295 297 301 305 308 305 312 309 302 301 296 286 275 275 279 296 301 300 296 294 294 289 285 289 287 282 282 286 287 282 286 289 285 281 285 284
218 217 223 226 239 239 225 233 246 263 272 277 264 244 248 248 236 240 250 254 261 253 250 256 252 247 247 243 242 262 273 272 276 284 318 309 310 257 221 233 257 266 279 274 275 272 274 267 264 270 283 292 299 301 299 293 294 294 296 297 292 294 293 290 284 283 282 284 283 283 284 287 287 282 279 284 288 290 279 271 266 265 273 277 277 279 278
223 217 217 222 230 230 230 229 230 240 247 281 302 285 266 259 256 239 235 243 247 253 243 243 244 244 242 225 228 238 249 254 248 247 277 291 314 297 228 203 231 238 262 275 277 276 277 277 277 285 292 295 293 292 278 265 269 268 267 273 277 279 279 276 274 274 272 271 271 271 268 266 262 269 266 267 267 269 273 273 273 269 270 278 281 283 283
228 226 222 218 226 229 229 225 241 268 297 315 305 289 260 242 246 241 223 225 237 242 234 234 238 241 234 240 254 262 269 267 253 224 223 214 219 229 209 203 244 263 277 284 283 277 274 278 287 291 293 294 295 289 267 259 249 255 256 256 257 262 262 261 262 263 262 261 262 263 262 264 268 266 255 255 255 260 266 268 272 273 267 269 271 270 270
225 225 214 214 235 239 238 218 206 214 278 309 288 278 275 221 225 229 233 225 229 245 250 247 248 252 242 231 236 259 278 295 298 236 218 231 246 262 260 265 274 274 277 275 276 276 280 286 289 293 295 294 294 279 265 264 264 259 261 262 262 260 260 258 256 252 253 257 260 257 260 260 255 256 262 267 269 268 271 277 278 274 272 273 271 273 276
210 222 230 219 231 242 208 198 194 236 238 237 242 260 273 277 262 263 258 246 243 248 256 256 253 256 247 238 234 228 223 209 279 288 224 206 225 227 252 250 256 269 281 284 284 278 282 281 283 287 289 291 290 280 275 270 266 261 258 258 261 260 263 266 266 263 264 262 268 271 272 268 263 260 260 259 260 258 258 259 265 274 271 265 268 263 260
214 221 233 210 211 197 197 205 217 241 249 245 238 255 260 272 278 274 270 256 253 261 258 259 258 259 257 240 226 228 222 209 202 233 257 181 210 224 244 258 275 282 286 284 287 289 277 277 279 280 285 289 285 282 282 281 276 276 272 269 266 265 267 267 266 264 268 272 270 270 266 269 270 265 267 264 264 262 260 260 257 256 262 265 266 264 256
218 197 231 232 220 218 212 214 230 237 247 242 239 250 234 225 291 270 246 240 240 246 261 266 258 253 247 242 227 224 215 212 229 249 263 258 251 261 267 269 271 268 264 272 278 280 275 275 282 286 283 278 275 273 269 266 265 264 264 264 267 270 266 268 275 274 266 267 270 267 270 269 270 271 266 264 264 263 257 256 257 258 259 260 261 264 265
196 206 223 222 222 226 209 211 229 233 229 235 242 241 216 214 243 267 269 247 236 264 269 270 271 256 254 249 241 233 215 220 228 232 240 250 246 252 252 255 257 260 265 265 268 275 283 282 274 273 271 268 265 265 262 259 258 259 259 260 259 262 266 265 264 269 268 266 265 265 266 267 265 265 265 261 265 267 267 266 266 264 261 259 259 260 263
213 220 235 240 232 241 240 243 250 250 249 249 246 241 232 235 245 267 268 239 222 233 240 255 280 269 205 230 250 241 224 220 226 233 233 243 246 250 254 249 257 259 257 264 270 273 272 272 276 274 270 270 265 265 265 264 265 265 262 259 258 256 255 255 253 255 260 258 259 264 262 260 258 261 264 262 260 261 265 263 262 263 261 261 259 259 262